QPF
0.00 0.00 0.00 0.00 0.00 0.00 0.00 0.00 0.01 0.01 0.00 0.00 0.00 0.00 0.00 0.00 0.00 0.00 0.00 0.00 0.00 0.00 0.00 0.00 0.00 0.00 0.00 0.01 0.01 0.01 0.01 0.01 0.01 0.02 0.01 0.01 0.03 0.03 0.02 0.02 0.02 0.03 0.03 0.03
0.00 0.01 0.00 0.00 0.00 0.00 0.00 0.00 0.00 0.00 0.00 0.00 0.01 0.00 0.00 0.00 0.00 0.00 0.00 0.00 0.00 0.00 0.00 0.00 0.00 0.00 0.01 0.01 0.01 0.02 0.01 0.01 0.01 0.02 0.02 0.01 0.01 0.03 0.02 0.02 0.02 0.03 0.04 0.04
0.00 0.01 0.00 0.00 0.00 0.00 0.00 0.00 0.00 0.00 0.00 0.00 0.00 0.00 0.00 0.00 0.00 0.01 0.01 0.01 0.00 0.00 0.00 0.00 0.00 0.01 0.01 0.01 0.02 0.02 0.02 0.02 0.02 0.02 0.03 0.02 0.01 0.02 0.02 0.02 0.02 0.03 0.04 0.04
0.01 0.00 0.01 0.00 0.00 0.00 0.00 0.00 0.00 0.00 0.00 0.00 0.00 0.00 0.00 0.00 0.00 0.01 0.01 0.01 0.01 0.00 0.01 0.01 0.01 0.01 0.01 0.01 0.02 0.02 0.02 0.02 0.03 0.03 0.03 0.03 0.01 0.01 0.02 0.02 0.02 0.02 0.03 0.03
0.01 0.01 0.00 0.00 0.00 0.00 0.00 0.00 0.00 0.00 0.00 0.00 0.00 0.00 0.00 0.00 0.00 0.00 0.01 0.01 0.01 0.01 0.01 0.01 0.00 0.00 0.01 0.01 0.01 0.02 0.02 0.02 0.03 0.03 0.02 0.03 0.02 0.01 0.01 0.01 0.02 0.02 0.02 0.03
0.01 0.01 0.00 0.00 0.00 0.00 0.00 0.00 0.00 0.00 0.00 0.00 0.00 0.00 0.00 0.00 0.00 0.00 0.00 0.00 0.01 0.01 0.00 0.00 0.00 0.00 0.01 0.01 0.01 0.02 0.02 0.03 0.03 0.03 0.02 0.02 0.03 0.02 0.01 0.01 0.02 0.02 0.02 0.02
0.01 0.02 0.01 0.00 0.00 0.00 0.00 0.00 0.00 0.00 0.00 0.00 0.00 0.00 0.00 0.00 0.00 0.00 0.00 0.00 0.00 0.01 0.01 0.01 0.01 0.01 0.01 0.01 0.01 0.02 0.02 0.03 0.03 0.03 0.02 0.02 0.03 0.02 0.01 0.02 0.02 0.02 0.02 0.01
0.01 0.02 0.01 0.00 0.00 0.00 0.00 0.00 0.00 0.00 0.00 0.00 0.00 0.00 0.00 0.00 0.00 0.00 0.00 0.00 0.00 0.00 0.01 0.01 0.01 0.01 0.01 0.01 0.02 0.02 0.03 0.04 0.04 0.04 0.03 0.02 0.03 0.03 0.02 0.02 0.02 0.02 0.02 0.02
0.01 0.01 0.01 0.01 0.01 0.01 0.00 0.00 0.00 0.00 0.00 0.00 0.00 0.00 0.00 0.00 0.00 0.00 0.00 0.00 0.00 0.01 0.01 0.01 0.01 0.01 0.01 0.02 0.02 0.03 0.03 0.05 0.05 0.05 0.05 0.04 0.04 0.04 0.04 0.03 0.03 0.03 0.02 0.02
0.02 0.01 0.01 0.01 0.01 0.01 0.00 0.00 0.00 0.00 0.00 0.00 0.00 0.00 0.00 0.00 0.00 0.00 0.00 0.00 0.00 0.00 0.00 0.01 0.01 0.01 0.01 0.02 0.02 0.02 0.03 0.04 0.04 0.05 0.05 0.05 0.05 0.05 0.05 0.04 0.04 0.03 0.03 0.03
0.01 0.01 0.01 0.01 0.01 0.00 0.00 0.00 0.00 0.00 0.00 0.00 0.00 0.00 0.00 0.00 0.00 0.00 0.00 0.00 0.00 0.00 0.01 0.01 0.01 0.01 0.01 0.02 0.02 0.02 0.02 0.03 0.04 0.05 0.05 0.05 0.05 0.05 0.06 0.05 0.05 0.05 0.05 0.04
0.01 0.00 0.00 0.00 0.00 0.00 0.00 0.00 0.00 0.00 0.00 0.00 0.00 0.00 0.00 0.00 0.00 0.00 0.00 0.00 0.00 0.00 0.00 0.01 0.01 0.01 0.01 0.01 0.02 0.03 0.03 0.03 0.04 0.04 0.05 0.06 0.06 0.07 0.07 0.07 0.06 0.04 0.04 0.04
0.00 0.00 0.00 0.00 0.00 0.00 0.00 0.00 0.00 0.00 0.00 0.00 0.00 0.00 0.00 0.00 0.00 0.00 0.00 0.00 0.00 0.00 0.00 0.00 0.01 0.01 0.01 0.01 0.02 0.02 0.03 0.04 0.04 0.04 0.04 0.04 0.05 0.06 0.06 0.06 0.06 0.05 0.04 0.04
0.00 0.00 0.00 0.00 0.00 0.00 0.00 0.00 0.00 0.00 0.00 0.00 0.00 0.00 0.00 0.00 0.00 0.00 0.00 0.00 0.00 0.00 0.00 0.00 0.00 0.01 0.01 0.01 0.01 0.02 0.02 0.03 0.04 0.04 0.04 0.04 0.04 0.05 0.05 0.05 0.05 0.05 0.04 0.04
0.00 0.00 0.00 0.00 0.01 0.00 0.00 0.00 0.00 0.00 0.00 0.00 0.00 0.00 0.00 0.00 0.00 0.00 0.00 0.00 0.00 0.00 0.00 0.00 0.00 0.00 0.00 0.01 0.01 0.01 0.02 0.02 0.03 0.04 0.04 0.04 0.04 0.04 0.05 0.05 0.05 0.04 0.03 0.03
0.00 0.01 0.01 0.01 0.01 0.01 0.00 0.00 0.00 0.00 0.00 0.00 0.00 0.00 0.00 0.00 0.00 0.00 0.00 0.00 0.00 0.00 0.00 0.00 0.00 0.00 0.00 0.00 0.01 0.01 0.01 0.02 0.03 0.03 0.03 0.03 0.03 0.04 0.04 0.05 0.05 0.04 0.03 0.04
0.00 0.00 0.00 0.01 0.01 0.00 0.00 0.00 0.00 0.00 0.00 0.00 0.00 0.00 0.00 0.00 0.00 0.00 0.00 0.00 0.00 0.00 0.00 0.00 0.00 0.00 0.00 0.00 0.01 0.01 0.01 0.01 0.02 0.02 0.02 0.03 0.03 0.03 0.03 0.04 0.04 0.04 0.04 0.04
0.00 0.00 0.00 0.00 0.00 0.00 0.00 0.00 0.00 0.00 0.00 0.00 0.00 0.00 0.00 0.00 0.00 0.00 0.00 0.00 0.00 0.00 0.00 0.00 0.00 0.00 0.00 0.00 0.01 0.01 0.01 0.01 0.01 0.02 0.02 0.02 0.03 0.03 0.03 0.03 0.03 0.03 0.03 0.04
0.00 0.00 0.00 0.00 0.00 0.00 0.00 0.00 0.00 0.00 0.00 0.00 0.00 0.00 0.00 0.00 0.00 0.00 0.00 0.00 0.00 0.00 0.00 0.00 0.00 0.00 0.00 0.00 0.01 0.01 0.01 0.01 0.01 0.01 0.02 0.02 0.02 0.02 0.02 0.02 0.02 0.02 0.02 0.03
0.00 0.00 0.00 0.00 0.00 0.00 0.00 0.00 0.00 0.00 0.00 0.00 0.00 0.00 0.00 0.00 0.00 0.00 0.00 0.00 0.00 0.00 0.00 0.00 0.01 0.00 0.00 0.00 0.01 0.01 0.01 0.01 0.01 0.01 0.01 0.01 0.01 0.01 0.02 0.02 0.02 0.02 0.02 0.02
0.00 0.00 0.00 0.00 0.00 0.00 0.00 0.00 0.00 0.00 0.00 0.00 0.00 0.00 0.00 0.00 0.00 0.00 0.00 0.00 0.00 0.00 0.00 0.00 0.00 0.00 0.01 0.02 0.02 0.01 0.01 0.01 0.01 0.01 0.01 0.01 0.01 0.01 0.01 0.02 0.02 0.02 0.02 0.02
0.00 0.00 0.00 0.00 0.00 0.00 0.00 0.00 0.00 0.00 0.00 0.00 0.00 0.00 0.00 0.00 0.00 0.00 0.00 0.01 0.00 0.01 0.01 0.00 0.01 0.01 0.02 0.03 0.02 0.01 0.01 0.01 0.01 0.01 0.01 0.01 0.01 0.01 0.01 0.01 0.02 0.02 0.02 0.02
0.00 0.00 0.00 0.00 0.00 0.00 0.00 0.00 0.00 0.00 0.00 0.00 0.00 0.00 0.00 0.01 0.01 0.01 0.01 0.01 0.01 0.01 0.01 0.01 0.01 0.02 0.02 0.02 0.01 0.01 0.00 0.00 0.01 0.01 0.01 0.01 0.01 0.01 0.01 0.01 0.02 0.02 0.02 0.02
0.00 0.00 0.00 0.00 0.00 0.00 0.00 0.00 0.00 0.00 0.00 0.00 0.00 0.00 0.01 0.01 0.01 0.01 0.01 0.01 0.01 0.01 0.01 0.01 0.01 0.02 0.02 0.01 0.01 0.00 0.01 0.01 0.01 0.01 0.01 0.01 0.01 0.01 0.01 0.02 0.02 0.02 0.02 0.02
0.00 0.00 0.00 0.00 0.00 0.00 0.00 0.00 0.00 0.00 0.00 0.00 0.01 0.01 0.01 0.01 0.01 0.01 0.01 0.00 0.01 0.01 0.01 0.00 0.01 0.01 0.01 0.01 0.01 0.01 0.01 0.01 0.01 0.01 0.01 0.01 0.01 0.01 0.01 0.02 0.02 0.02 0.02 0.02
0.01 0.01 0.01 0.01 0.01 0.00 0.00 0.00 0.00 0.00 0.01 0.01 0.01 0.01 0.01 0.01 0.01 0.01 0.00 0.00 0.00 0.00 0.00 0.00 0.00 0.00 0.00 0.01 0.01 0.01 0.01 0.01 0.01 0.01 0.01 0.01 0.01 0.01 0.01 0.01 0.01 0.02 0.02 0.02
0.01 0.01 0.01 0.01 0.01 0.01 0.01 0.01 0.01 0.01 0.01 0.01 0.01 0.01 0.01 0.01 0.00 0.00 0.00 0.00 0.00 0.00 0.00 0.00 0.00 0.00 0.00 0.01 0.01 0.01 0.01 0.01 0.01 0.01 0.01 0.01 0.01 0.01 0.01 0.01 0.02 0.02 0.02 0.02
MSLP
1021.60 1021.66 1021.59 1021.40 1021.05 1020.54 1019.89 1019.13 1018.28 1017.42 1016.60 1015.90 1015.39 1015.10 1015.04 1015.22 1015.61 1016.15 1016.78 1017.43 1018.06 1018.62 1019.09 1019.50 1019.84 1020.15 1020.46 1020.81 1021.18 1021.61 1022.06 1022.52 1022.99 1023.43 1023.84 1024.21 1024.54 1024.83 1025.07 1025.28 1025.44 1025.54 1025.56 1025.51
1021.85 1021.69 1021.36 1020.89 1020.27 1019.54 1018.72 1017.87 1017.02 1016.23 1015.56 1015.03 1014.71 1014.59 1014.68 1014.95 1015.38 1015.90 1016.48 1017.06 1017.61 1018.09 1018.52 1018.89 1019.22 1019.53 1019.84 1020.17 1020.53 1020.92 1021.33 1021.75 1022.17 1022.58 1022.97 1023.33 1023.68 1023.99 1024.28 1024.52 1024.70 1024.82 1024.84 1024.78
1021.94 1021.56 1020.99 1020.27 1019.42 1018.51 1017.58 1016.69 1015.88 1015.20 1014.69 1014.36 1014.22 1014.28 1014.50 1014.85 1015.30 1015.80 1016.32 1016.82 1017.28 1017.69 1018.06 1018.38 1018.69 1018.99 1019.29 1019.61 1019.94 1020.29 1020.65 1021.02 1021.39 1021.76 1022.13 1022.49 1022.84 1023.18 1023.48 1023.74 1023.94 1024.06 1024.08 1024.00
1021.74 1021.17 1020.40 1019.48 1018.49 1017.48 1016.51 1015.66 1014.95 1014.43 1014.10 1013.98 1014.05 1014.26 1014.60 1015.02 1015.48 1015.94 1016.39 1016.80 1017.16 1017.49 1017.79 1018.06 1018.33 1018.60 1018.88 1019.16 1019.46 1019.76 1020.07 1020.38 1020.70 1021.03 1021.36 1021.71 1022.06 1022.40 1022.71 1022.98 1023.18 1023.29 1023.29 1023.18
1021.16 1020.43 1019.54 1018.52 1017.47 1016.46 1015.56 1014.82 1014.29 1013.97 1013.87 1013.97 1014.22 1014.59 1015.03 1015.50 1015.95 1016.37 1016.74 1017.05 1017.32 1017.56 1017.77 1017.99 1018.20 1018.43 1018.66 1018.90 1019.15 1019.39 1019.63 1019.88 1020.14 1020.41 1020.70 1021.02 1021.34 1021.67 1021.97 1022.22 1022.41 1022.49 1022.46 1022.33
1020.17 1019.37 1018.42 1017.41 1016.42 1015.51 1014.76 1014.22 1013.91 1013.84 1013.98 1014.29 1014.73 1015.24 1015.77 1016.26 1016.70 1017.06 1017.35 1017.57 1017.74 1017.89 1018.03 1018.17 1018.33 1018.50 1018.68 1018.86 1019.04 1019.21 1019.38 1019.55 1019.73 1019.93 1020.16 1020.42 1020.70 1020.99 1021.26 1021.48 1021.62 1021.67 1021.60 1021.43
1018.84 1018.04 1017.14 1016.23 1015.38 1014.67 1014.15 1013.86 1013.82 1014.00 1014.38 1014.90 1015.50 1016.12 1016.70 1017.22 1017.63 1017.94 1018.15 1018.29 1018.38 1018.45 1018.52 1018.60 1018.70 1018.81 1018.92 1019.04 1019.14 1019.23 1019.30 1019.38 1019.47 1019.59 1019.74 1019.92 1020.13 1020.35 1020.56 1020.73 1020.82 1020.82 1020.71 1020.49
1017.32 1016.59 1015.82 1015.08 1014.46 1014.00 1013.75 1013.74 1013.96 1014.39 1014.98 1015.67 1016.40 1017.10 1017.72 1018.23 1018.62 1018.88 1019.04 1019.12 1019.15 1019.16 1019.18 1019.21 1019.26 1019.32 1019.38 1019.42 1019.43 1019.43 1019.41 1019.38 1019.37 1019.38 1019.43 1019.51 1019.63 1019.77 1019.90 1019.98 1020.01 1019.95 1019.80 1019.54
1015.80 1015.20 1014.62 1014.11 1013.74 1013.56 1013.59 1013.85 1014.31 1014.95 1015.70 1016.52 1017.32 1018.06 1018.70 1019.19 1019.55 1019.78 1019.90 1019.94 1019.95 1019.94 1019.93 1019.94 1019.96 1019.97 1019.97 1019.95 1019.89 1019.79 1019.67 1019.53 1019.40 1019.30 1019.23 1019.20 1019.21 1019.24 1019.27 1019.28 1019.23 1019.11 1018.90 1018.62
1014.47 1014.05 1013.68 1013.42 1013.32 1013.40 1013.68 1014.17 1014.82 1015.60 1016.46 1017.34 1018.17 1018.91 1019.53 1020.00 1020.33 1020.54 1020.65 1020.69 1020.70 1020.70 1020.70 1020.70 1020.71 1020.70 1020.66 1020.57 1020.44 1020.26 1020.03 1019.79 1019.55 1019.33 1019.14 1018.99 1018.88 1018.80 1018.73 1018.64 1018.52 1018.34 1018.09 1017.78
1013.50 1013.27 1013.13 1013.10 1013.24 1013.55 1014.03 1014.68 1015.45 1016.31 1017.21 1018.09 1018.90 1019.61 1020.19 1020.63 1020.94 1021.14 1021.26 1021.33 1021.37 1021.40 1021.42 1021.44 1021.45 1021.43 1021.36 1021.22 1021.03 1020.77 1020.47 1020.13 1019.79 1019.46 1019.16 1018.90 1018.68 1018.49 1018.31 1018.14 1017.93 1017.69 1017.41 1017.08
1013.00 1012.95 1013.01 1013.19 1013.52 1014.00 1014.62 1015.36 1016.19 1017.06 1017.94 1018.78 1019.53 1020.18 1020.71 1021.11 1021.41 1021.62 1021.76 1021.87 1021.95 1022.02 1022.08 1022.13 1022.14 1022.11 1022.02 1021.85 1021.60 1021.29 1020.92 1020.51 1020.09 1019.67 1019.28 1018.93 1018.61 1018.33 1018.06 1017.80 1017.53 1017.24 1016.92 1016.57
1012.95 1013.08 1013.31 1013.65 1014.13 1014.72 1015.42 1016.19 1017.02 1017.86 1018.67 1019.44 1020.11 1020.69 1021.17 1021.54 1021.83 1022.05 1022.22 1022.36 1022.48 1022.59 1022.68 1022.74 1022.76 1022.72 1022.60 1022.40 1022.12 1021.76 1021.34 1020.89 1020.42 1019.95 1019.50 1019.08 1018.69 1018.33 1017.99 1017.66 1017.33 1016.99 1016.63 1016.26
1013.32 1013.58 1013.95 1014.42 1014.99 1015.65 1016.38 1017.15 1017.94 1018.71 1019.45 1020.13 1020.73 1021.24 1021.66 1022.00 1022.28 1022.51 1022.70 1022.87 1023.01 1023.14 1023.24 1023.29 1023.29 1023.23 1023.08 1022.85 1022.54 1022.16 1021.72 1021.24 1020.75 1020.26 1019.78 1019.33 1018.90 1018.49 1018.10 1017.71 1017.33 1016.94 1016.54 1016.15
1014.00 1014.38 1014.85 1015.41 1016.04 1016.73 1017.46 1018.20 1018.94 1019.65 1020.31 1020.91 1021.44 1021.89 1022.27 1022.58 1022.85 1023.07 1023.26 1023.43 1023.57 1023.68 1023.75 1023.77 1023.74 1023.63 1023.44 1023.18 1022.84 1022.45 1022.01 1021.54 1021.05 1020.57 1020.10 1019.64 1019.20 1018.76 1018.34 1017.91 1017.48 1017.04 1016.61 1016.19
1014.91 1015.38 1015.92 1016.54 1017.20 1017.90 1018.62 1019.34 1020.03 1020.68 1021.27 1021.81 1022.28 1022.68 1023.02 1023.30 1023.54 1023.75 1023.91 1024.05 1024.15 1024.21 1024.23 1024.19 1024.09 1023.92 1023.68 1023.38 1023.03 1022.63 1022.20 1021.76 1021.30 1020.85 1020.41 1019.97 1019.53 1019.09 1018.64 1018.19 1017.72 1017.24 1016.77 1016.31
1015.98 1016.51 1017.10 1017.75 1018.43 1019.14 1019.84 1020.52 1021.17 1021.78 1022.32 1022.81 1023.23 1023.59 1023.90 1024.15 1024.36 1024.52 1024.63 1024.71 1024.74 1024.72 1024.65 1024.53 1024.34 1024.10 1023.81 1023.48 1023.10 1022.71 1022.31 1021.90 1021.49 1021.08 1020.67 1020.26 1019.85 1019.41 1018.95 1018.48 1017.98 1017.47 1016.95 1016.45
1017.16 1017.74 1018.36 1019.02 1019.71 1020.40 1021.08 1021.74 1022.35 1022.92 1023.43 1023.88 1024.27 1024.59 1024.86 1025.06 1025.22 1025.32 1025.36 1025.36 1025.30 1025.18 1025.01 1024.79 1024.51 1024.20 1023.85 1023.48 1023.10 1022.71 1022.33 1021.96 1021.59 1021.23 1020.87 1020.49 1020.09 1019.67 1019.21 1018.71 1018.19 1017.65 1017.10 1016.57
1018.46 1019.06 1019.69 1020.35 1021.02 1021.69 1022.34 1022.97 1023.55 1024.08 1024.55 1024.96 1025.30 1025.58 1025.80 1025.95 1026.04 1026.06 1026.03 1025.93 1025.77 1025.55 1025.28 1024.96 1024.61 1024.22 1023.83 1023.43 1023.04 1022.66 1022.30 1021.96 1021.63 1021.31 1020.98 1020.63 1020.24 1019.82 1019.36 1018.85 1018.31 1017.75 1017.17 1016.61
1019.88 1020.47 1021.09 1021.73 1022.37 1023.00 1023.61 1024.18 1024.72 1025.20 1025.62 1025.98 1026.28 1026.50 1026.65 1026.74 1026.75 1026.69 1026.57 1026.37 1026.12 1025.81 1025.45 1025.05 1024.64 1024.21 1023.78 1023.36 1022.97 1022.60 1022.26 1021.94 1021.63 1021.33 1021.01 1020.67 1020.29 1019.86 1019.39 1018.87 1018.32 1017.75 1017.16 1016.59
1021.41 1021.98 1022.56 1023.15 1023.73 1024.30 1024.85 1025.37 1025.83 1026.25 1026.61 1026.90 1027.12 1027.28 1027.36 1027.36 1027.29 1027.15 1026.94 1026.67 1026.33 1025.95 1025.53 1025.08 1024.62 1024.17 1023.72 1023.30 1022.91 1022.55 1022.22 1021.91 1021.61 1021.30 1020.98 1020.63 1020.24 1019.81 1019.32 1018.80 1018.24 1017.66 1017.07 1016.50
1023.01 1023.53 1024.06 1024.58 1025.09 1025.59 1026.05 1026.48 1026.87 1027.20 1027.47 1027.68 1027.82 1027.88 1027.88 1027.80 1027.65 1027.43 1027.15 1026.81 1026.42 1025.99 1025.54 1025.06 1024.59 1024.13 1023.68 1023.27 1022.88 1022.53 1022.20 1021.88 1021.57 1021.26 1020.92 1020.54 1020.13 1019.68 1019.18 1018.64 1018.08 1017.50 1016.92 1016.35
1024.63 1025.09 1025.54 1025.98 1026.41 1026.81 1027.18 1027.51 1027.79 1028.02 1028.19 1028.30 1028.34 1028.31 1028.22 1028.06 1027.84 1027.55 1027.22 1026.83 1026.41 1025.95 1025.48 1025.01 1024.54 1024.09 1023.66 1023.26 1022.88 1022.53 1022.19 1021.86 1021.53 1021.19 1020.82 1020.41 1019.97 1019.49 1018.97 1018.42 1017.86 1017.28 1016.70 1016.14
1026.18 1026.57 1026.94 1027.30 1027.62 1027.92 1028.19 1028.41 1028.58 1028.70 1028.76 1028.76 1028.70 1028.58 1028.41 1028.17 1027.88 1027.54 1027.16 1026.75 1026.31 1025.85 1025.39 1024.93 1024.48 1024.05 1023.64 1023.25 1022.89 1022.53 1022.18 1021.84 1021.48 1021.10 1020.69 1020.25 1019.77 1019.26 1018.72 1018.16 1017.58 1017.00 1016.42 1015.84
1027.60 1027.91 1028.20 1028.46 1028.70 1028.89 1029.05 1029.16 1029.22 1029.22 1029.18 1029.08 1028.93 1028.72 1028.46 1028.16 1027.82 1027.44 1027.03 1026.60 1026.15 1025.70 1025.26 1024.82 1024.40 1023.99 1023.60 1023.22 1022.86 1022.50 1022.14 1021.77 1021.38 1020.96 1020.51 1020.03 1019.52 1018.98 1018.42 1017.83 1017.24 1016.64 1016.04 1015.44
1028.82 1029.06 1029.27 1029.45 1029.59 1029.69 1029.74 1029.74 1029.70 1029.60 1029.46 1029.27 1029.02 1028.74 1028.42 1028.06 1027.68 1027.26 1026.84 1026.40 1025.96 1025.52 1025.09 1024.67 1024.27 1023.88 1023.50 1023.13 1022.77 1022.40 1022.02 1021.62 1021.20 1020.75 1020.26 1019.75 1019.20 1018.63 1018.03 1017.42 1016.79 1016.16 1015.52 1014.88
1029.82 1030.00 1030.14 1030.24 1030.30 1030.30 1030.26 1030.17 1030.03 1029.84 1029.61 1029.34 1029.02 1028.68 1028.30 1027.90 1027.48 1027.05 1026.61 1026.17 1025.73 1025.30 1024.88 1024.48 1024.08 1023.70 1023.33 1022.96 1022.59 1022.20 1021.80 1021.38 1020.92 1020.44 1019.92 1019.36 1018.78 1018.17 1017.53 1016.88 1016.21 1015.53 1014.84 1014.13
Thickness
5435 5438 5434 5432 5431 5423 5415 5412 5406 5410 5403 5407 5397 5387 5380 5373 5367 5361 5355 5351 5346 5340 5335 5331 5327 5324 5322 5320 5318 5316 5315 5313 5312 5312 5311 5311 5311 5311 5312 5313 5315 5317 5320 5324
5422 5426 5421 5421 5423 5419 5414 5407 5400 5397 5395 5395 5384 5375 5369 5363 5357 5351 5345 5341 5336 5331 5325 5321 5317 5315 5312 5310 5308 5306 5304 5303 5302 5301 5301 5299 5300 5300 5300 5302 5304 5306 5309 5312
5408 5409 5412 5411 5414 5409 5402 5396 5392 5390 5390 5380 5372 5367 5359 5352 5346 5340 5334 5330 5325 5320 5315 5311 5308 5305 5302 5300 5298 5296 5294 5293 5291 5290 5290 5289 5289 5289 5289 5290 5293 5296 5299 5302
5391 5392 5394 5416 5404 5399 5392 5385 5378 5377 5372 5367 5361 5353 5345 5339 5333 5328 5324 5320 5315 5310 5306 5302 5298 5295 5293 5291 5288 5287 5285 5283 5281 5280 5279 5279 5279 5278 5279 5280 5282 5285 5289 5292
5378 5374 5385 5396 5394 5384 5379 5375 5369 5364 5360 5354 5346 5339 5333 5329 5323 5317 5313 5308 5303 5299 5295 5292 5288 5286 5283 5281 5279 5277 5275 5273 5271 5270 5269 5269 5269 5269 5269 5270 5273 5276 5279 5282
5366 5369 5381 5393 5383 5375 5370 5362 5363 5355 5349 5341 5333 5326 5325 5320 5312 5307 5302 5297 5293 5289 5285 5282 5279 5276 5273 5271 5269 5267 5265 5264 5262 5261 5261 5260 5260 5259 5260 5261 5263 5267 5270 5273
5360 5360 5372 5373 5367 5366 5359 5364 5356 5346 5339 5329 5321 5319 5313 5307 5301 5296 5291 5287 5283 5278 5274 5271 5269 5266 5263 5262 5259 5258 5256 5255 5253 5252 5252 5252 5251 5251 5251 5252 5255 5257 5261 5265
5353 5351 5365 5362 5355 5353 5355 5349 5342 5335 5327 5319 5312 5306 5300 5295 5290 5285 5280 5276 5272 5267 5264 5261 5258 5255 5253 5251 5250 5248 5247 5245 5244 5244 5243 5244 5242 5242 5242 5242 5245 5248 5252 5256
5360 5366 5362 5352 5350 5346 5340 5336 5330 5323 5317 5309 5301 5295 5290 5284 5278 5273 5269 5264 5260 5256 5253 5250 5247 5244 5242 5241 5240 5239 5237 5236 5235 5235 5233 5233 5233 5233 5233 5233 5235 5239 5243 5247
5346 5350 5347 5341 5337 5334 5329 5324 5319 5312 5305 5299 5291 5285 5279 5273 5267 5262 5258 5253 5249 5245 5242 5239 5237 5234 5232 5232 5230 5228 5227 5226 5226 5225 5225 5224 5224 5223 5223 5224 5226 5230 5234 5238
5339 5340 5336 5334 5329 5324 5318 5312 5306 5300 5294 5288 5281 5275 5268 5262 5256 5251 5248 5243 5239 5234 5232 5229 5227 5225 5223 5221 5219 5217 5217 5217 5216 5216 5215 5216 5215 5214 5215 5216 5217 5221 5225 5228
5343 5338 5330 5327 5321 5314 5307 5301 5294 5288 5281 5276 5270 5263 5257 5251 5246 5241 5236 5232 5228 5224 5222 5219 5216 5214 5212 5210 5208 5207 5207 5207 5206 5205 5206 5206 5207 5208 5208 5209 5211 5214 5217 5220
5333 5327 5319 5314 5308 5302 5296 5290 5283 5277 5270 5264 5258 5252 5246 5241 5236 5230 5226 5221 5217 5214 5211 5208 5206 5204 5202 5200 5198 5197 5195 5195 5195 5195 5195 5196 5198 5199 5202 5203 5203 5206 5209 5213
5318 5313 5307 5301 5296 5290 5284 5278 5271 5265 5259 5253 5247 5242 5236 5230 5225 5219 5215 5211 5207 5204 5201 5198 5196 5194 5192 5190 5189 5187 5186 5186 5186 5185 5185 5185 5187 5188 5190 5193 5196 5199 5201 5205
5305 5301 5296 5289 5282 5277 5271 5265 5259 5252 5247 5241 5236 5230 5224 5219 5214 5209 5205 5202 5198 5194 5191 5188 5186 5185 5183 5181 5180 5178 5177 5177 5177 5176 5176 5176 5177 5178 5180 5182 5186 5189 5193 5197
5291 5286 5281 5275 5270 5265 5259 5253 5247 5241 5235 5230 5223 5218 5213 5208 5203 5199 5195 5191 5186 5184 5182 5179 5177 5176 5174 5172 5171 5170 5168 5168 5168 5167 5167 5167 5168 5169 5171 5173 5176 5179 5183 5187
5280 5275 5269 5263 5259 5253 5247 5242 5236 5230 5224 5218 5213 5208 5203 5198 5194 5190 5186 5181 5177 5174 5172 5170 5168 5167 5165 5164 5162 5161 5160 5160 5160 5159 5158 5158 5159 5160 5161 5163 5167 5170 5173 5177
5271 5267 5261 5255 5249 5243 5237 5231 5225 5219 5213 5208 5203 5197 5192 5188 5184 5180 5176 5172 5169 5166 5165 5163 5161 5159 5157 5156 5154 5153 5152 5151 5151 5150 5150 5150 5151 5152 5153 5155 5158 5162 5165 5169
5257 5253 5248 5244 5238 5232 5226 5220 5214 5208 5203 5198 5192 5187 5183 5179 5175 5171 5167 5163 5160 5158 5157 5155 5154 5152 5150 5148 5147 5146 5144 5143 5142 5142 5141 5143 5143 5144 5145 5148 5150 5153 5157 5161
5245 5241 5235 5231 5226 5220 5214 5209 5203 5197 5193 5188 5183 5179 5174 5170 5166 5162 5158 5155 5153 5151 5149 5148 5146 5144 5142 5140 5139 5137 5136 5135 5134 5134 5133 5134 5135 5136 5138 5140 5143 5146 5149 5152
5234 5229 5224 5219 5213 5209 5204 5199 5194 5188 5184 5179 5174 5170 5167 5163 5159 5154 5151 5149 5147 5145 5143 5141 5138 5136 5134 5133 5132 5129 5127 5126 5126 5125 5125 5126 5127 5129 5131 5133 5136 5139 5142 5146
5222 5218 5213 5208 5202 5198 5194 5189 5185 5180 5175 5171 5167 5163 5159 5155 5151 5148 5145 5141 5140 5138 5136 5133 5130 5128 5128 5126 5123 5121 5119 5118 5117 5117 5118 5119 5120 5122 5125 5127 5129 5132 5135 5139
5212 5208 5203 5198 5193 5188 5184 5180 5176 5172 5167 5163 5159 5155 5151 5147 5143 5140 5138 5135 5132 5131 5128 5125 5123 5123 5122 5118 5115 5112 5111 5110 5110 5110 5111 5112 5114 5116 5118 5120 5123 5125 5129 5132
5202 5197 5193 5188 5183 5178 5175 5172 5168 5165 5160 5156 5153 5149 5144 5140 5137 5133 5130 5128 5125 5123 5120 5118 5117 5115 5113 5109 5107 5105 5104 5104 5104 5104 5105 5107 5108 5110 5112 5114 5117 5120 5123 5127
5192 5187 5183 5178 5174 5171 5168 5164 5160 5156 5152 5149 5146 5142 5138 5134 5129 5127 5123 5120 5118 5116 5113 5110 5109 5107 5104 5101 5100 5098 5098 5097 5098 5099 5100 5100 5102 5103 5106 5108 5111 5114 5118 5122
5181 5177 5174 5170 5166 5163 5159 5156 5152 5149 5145 5142 5138 5135 5131 5127 5123 5120 5116 5113 5110 5109 5105 5103 5101 5099 5097 5095 5094 5093 5093 5092 5092 5092 5093 5094 5096 5098 5100 5103 5106 5109 5113 5117
5171 5168 5165 5161 5158 5155 5151 5148 5144 5141 5138 5134 5131 5128 5124 5120 5117 5113 5110 5107 5104 5102 5100 5097 5095 5094 5092 5091 5090 5089 5088 5088 5088 5088 5088 5089 5091 5093 5095 5098 5102 5105 5109 5113